Weather History for KGLY - May, 2013

Change the Weather History Date:

Monday, May 20, 2013

  Actual Average (KSZL) Record (KSZL)
Temperature  
Mean Temperature 70 °F -  
Max Temperature 78 °F 73 °F 86 °F (1998)
Min Temperature 62 °F 54 °F 42 °F (2002)
Cooling Degree Days 5    
Growing Degree Days 20 (Base 50)    
Moisture  
Dew Point 63 °F    
Average Humidity 89    
Maximum Humidity 100    
Minimum Humidity 78    
Precipitation  
Precipitation 0.00 in - - ()
Sea Level Pressure  
Sea Level Pressure 29.75 in    
Wind  
Wind Speed 10 mph (SSE)    
Max Wind Speed 22 mph    
Max Gust Speed 28 mph    
Visibility 8 miles    
Events Rain , Thunderstorm    
Averages and records for this station are not official NWS values.
T = Trace of Precipitation, MM = Missing Value Source: NWS Daily Summary

Daily Weather History Graph

Daily Weather History Graph

Search for Another Location

Airport or City:

Trip Planner

Search our weather history database for the weather conditions in past years. The results will help you decide how hot, cold, wet, or windy it might be!

Date:

Astronomy

May. 20, 2013 Rise Set
Actual Time 5:59 AM CDT 8:23 PM CDT
Civil Twilight 5:29 AM CDT 8:53 PM CDT
Nautical Twilight 4:51 AM CDT 9:31 PM CDT
Astronomical Twilight 4:10 AM CDT 10:12 PM CDT
Moon 3:35 PM CDT (5/20) 2:50 AM CDT (5/20)
Length of Visible Light 15h 24m
Length of Day
14h 24m
Waxing Gibbous, 75% of the Moon is Illuminated
May 20
Waxing Gibbous
May 24
Full
May 31
Last Quarter
Jun 8
New
Jun 16
First Quarter

Hourly Weather History & Observations

Time (CDT) Temp. Dew Point Humidity Pressure Visibility Wind Dir Wind Speed Gust Speed Precip Events Conditions
12:15 AM 62.6 °F 60.8 °F 94% 29.79 in 0.8 mi West 16.1 mph 25.3 mph N/A Rain Heavy Rain
12:35 AM 62.6 °F 62.6 °F 100% 29.79 in 1.2 mi SSE 11.5 mph - N/A Rain , Thunderstorm Heavy Thunderstorms and Rain
12:55 AM 62.6 °F 62.6 °F 100% 29.79 in 4.0 mi SW 15.0 mph 19.6 mph N/A Rain , Thunderstorm Heavy Rain
1:15 AM 62.6 °F 60.8 °F 94% 29.84 in 3.0 mi SSW 10.4 mph - N/A Rain , Thunderstorm Light Thunderstorms and Rain
1:35 AM 62.6 °F 60.8 °F 94% 29.82 in 3.0 mi SSW 4.6 mph - N/A Rain , Thunderstorm Thunderstorms and Rain
1:55 AM 62.6 °F 60.8 °F 94% 29.74 in 3.0 mi East 8.1 mph - N/A Rain , Thunderstorm Light Rain
2:15 AM 62.6 °F 60.8 °F 94% 29.73 in 8.0 mi ESE 6.9 mph - N/A Thunderstorm Scattered Clouds
2:35 AM 62.6 °F 60.8 °F 94% 29.74 in 10.0 mi SE 10.4 mph - N/A   Clear
2:55 AM 62.6 °F 60.8 °F 94% 29.73 in 10.0 mi SE 12.7 mph - N/A Thunderstorm Partly Cloudy
3:35 AM 62.6 °F 60.8 °F 94% 29.75 in 10.0 mi West 10.4 mph - N/A Thunderstorm Light Drizzle
3:55 AM 62.6 °F 60.8 °F 94% 29.82 in 10.0 mi SSW 9.2 mph - N/A   Partly Cloudy
4:15 AM 62.6 °F 60.8 °F 94% 29.81 in 2.5 mi South 9.2 mph - N/A Rain , Thunderstorm Rain
4:35 AM 62.6 °F 60.8 °F 94% 29.83 in 3.0 mi South 6.9 mph - N/A Rain Light Rain
4:55 AM 62.6 °F 60.8 °F 94% 29.78 in 5.0 mi SSE 13.8 mph - N/A Thunderstorm Overcast
5:15 AM 62.6 °F 60.8 °F 94% 29.82 in 7.0 mi South 10.4 mph - N/A Rain Light Rain
5:35 AM 62.6 °F 60.8 °F 94% 29.73 in 5.0 mi East 10.4 mph - N/A   Mostly Cloudy
5:55 AM 62.6 °F 60.8 °F 94% 29.77 in 5.0 mi SSE 11.5 mph - N/A Rain Light Rain
6:15 AM 62.6 °F 60.8 °F 94% 29.80 in 9.0 mi South 9.2 mph - N/A   Partly Cloudy
6:35 AM 62.6 °F 60.8 °F 94% 29.76 in 7.0 mi SE 15.0 mph 21.9 mph N/A   Light Drizzle
6:55 AM 62.6 °F 60.8 °F 94% 29.74 in 10.0 mi SSE 15.0 mph 26.5 mph N/A   Mostly Cloudy
7:15 AM 64.4 °F 60.8 °F 88% 29.75 in 9.0 mi SE 16.1 mph 26.5 mph N/A Thunderstorm Mostly Cloudy
7:35 AM 64.4 °F 60.8 °F 88% 29.77 in 8.0 mi South 21.9 mph 27.6 mph N/A   Mostly Cloudy
7:55 AM 64.4 °F 60.8 °F 88% 29.74 in 8.0 mi SE 13.8 mph 18.4 mph N/A   Mostly Cloudy
8:15 AM 64.4 °F 60.8 °F 88% 29.76 in 7.0 mi SSE 11.5 mph - N/A Rain Light Rain
8:35 AM 66.2 °F 60.8 °F 83% 29.75 in 9.0 mi South 10.4 mph - N/A   Scattered Clouds
8:55 AM 68.0 °F 62.6 °F 83% 29.77 in 10.0 mi SSW 5.8 mph - N/A   Mostly Cloudy
9:15 AM 69.8 °F 62.6 °F 78% 29.76 in 10.0 mi SSE 12.7 mph 17.3 mph N/A   Partly Cloudy
9:35 AM 69.8 °F 62.6 °F 78% 29.78 in 10.0 mi SSE 11.5 mph 18.4 mph N/A   Clear
9:55 AM 69.8 °F 62.6 °F 78% 29.81 in 10.0 mi SW 3.5 mph - N/A   Mostly Cloudy
10:15 AM 68.0 °F 62.6 °F 83% 29.83 in 10.0 mi NW 4.6 mph 16.1 mph N/A Thunderstorm Overcast
10:35 AM 66.2 °F 62.6 °F 88% 29.82 in 9.0 mi North 6.9 mph - N/A   Overcast
10:55 AM 66.2 °F 62.6 °F 88% 29.83 in 9.0 mi North 5.8 mph - N/A   Overcast
11:15 AM 68.0 °F 62.6 °F 83% 29.83 in 10.0 mi NE 3.5 mph - N/A Thunderstorm Overcast
11:35 AM 69.8 °F 62.6 °F 78% 29.82 in 10.0 mi East 3.5 mph - N/A   Overcast
11:55 AM 69.8 °F 62.6 °F 78% 29.81 in 10.0 mi East 4.6 mph - N/A   Overcast
12:15 PM 69.8 °F 62.6 °F 78% 29.80 in 10.0 mi ESE 8.1 mph - N/A   Mostly Cloudy
12:35 PM 71.6 °F 64.4 °F 78% 29.79 in 9.0 mi ESE 10.4 mph - N/A   Mostly Cloudy
1:15 PM 73.4 °F 66.2 °F 78% 29.78 in 10.0 mi SE 6.9 mph 17.3 mph N/A   Mostly Cloudy
1:55 PM 73.4 °F 66.2 °F 78% 29.78 in 9.0 mi SE 10.4 mph - N/A   Overcast
2:35 PM 75.2 °F 69.8 °F 83% 29.76 in 9.0 mi SSE 9.2 mph - N/A   Overcast
2:55 PM 77.0 °F 69.8 °F 78% 29.74 in 9.0 mi SE 9.2 mph - N/A   Scattered Clouds
3:15 PM 77.0 °F 69.8 °F 78% 29.73 in 9.0 mi SSE 10.4 mph - N/A   Scattered Clouds
3:35 PM 78.8 °F 71.6 °F 78% 29.71 in 8.0 mi South 11.5 mph 17.3 mph N/A   Mostly Cloudy
4:15 PM 75.2 °F 69.8 °F 83% 29.70 in 3.0 mi South 18.4 mph - N/A   Haze
4:35 PM 73.4 °F 71.6 °F 94% 29.69 in 6.0 mi South 11.5 mph - N/A Thunderstorm Overcast
4:55 PM 73.4 °F 69.8 °F 88% 29.71 in 8.0 mi South 11.5 mph 19.6 mph N/A   Mostly Cloudy
5:15 PM 73.4 °F 69.8 °F 88% 29.71 in 5.0 mi South 15.0 mph 18.4 mph N/A Thunderstorm Mostly Cloudy
5:35 PM 71.6 °F 69.8 °F 94% 29.71 in 3.0 mi South 8.1 mph - N/A   Mostly Cloudy
5:55 PM 71.6 °F 69.8 °F 94% 29.66 in 3.0 mi ESE 4.6 mph - N/A Rain , Thunderstorm Light Rain
6:15 PM 68.0 °F 64.4 °F 88% 29.71 in 7.0 mi NW 9.2 mph - N/A Rain , Thunderstorm Thunderstorms and Rain
6:55 PM 66.2 °F 64.4 °F 94% 29.71 in 5.0 mi WSW 11.5 mph 24.2 mph N/A Rain , Thunderstorm Light Thunderstorms and Rain
7:35 PM 66.2 °F 64.4 °F 94% 29.67 in 5.0 mi ESE 5.8 mph 24.2 mph N/A Thunderstorm Overcast
7:55 PM 66.2 °F 64.4 °F 94% 29.70 in 9.0 mi Calm Calm - N/A Thunderstorm Partly Cloudy
8:15 PM 66.2 °F 64.4 °F 94% 29.70 in 7.0 mi SSE 5.8 mph - N/A   Clear
8:35 PM 66.2 °F 64.4 °F 94% 29.69 in 8.0 mi South 6.9 mph - N/A   Scattered Clouds
8:55 PM 66.2 °F 64.4 °F 94% 29.67 in 10.0 mi SSW 8.1 mph - N/A   Scattered Clouds
9:15 PM 66.2 °F 62.6 °F 88% 29.69 in 10.0 mi South 8.1 mph - N/A   Partly Cloudy
9:35 PM 64.4 °F 62.6 °F 94% 29.70 in 10.0 mi South 9.2 mph - N/A   Clear
9:55 PM 64.4 °F 60.8 °F 88% 29.72 in 10.0 mi South 6.9 mph - N/A   Clear
10:15 PM 64.4 °F 62.6 °F 94% 29.71 in 10.0 mi South 6.9 mph - N/A   Clear
10:35 PM 64.4 °F 62.6 °F 94% 29.74 in 10.0 mi South 8.1 mph - N/A   Clear
10:55 PM 64.4 °F 62.6 °F 94% 29.74 in 10.0 mi South 9.2 mph - N/A   Clear
11:15 PM 64.4 °F 62.6 °F 94% 29.74 in 10.0 mi South 8.1 mph - N/A   Clear
11:35 PM 64.4 °F 62.6 °F 94% 29.74 in 10.0 mi SW 6.9 mph - N/A   Clear
11:55 PM 64.4 °F 62.6 °F 94% 29.74 in 10.0 mi SW 5.8 mph - N/A   Clear